Location: Moscow
(44.4414°N, 72.7154°W)
Time: 18:33:28
(UTC+00:00)

A-11 Canister half - All Passes

Search period start: 13 November 2024 00:00
Search period end: 23 November 2024 00:00
Orbit: 1525 x 1682 km, 47.3° (Epoch: 13 November)

Date Brightness Start Highest point End Pass type
(mag) Time Alt. Az. Time Alt. Az. Time Alt. Az.
13 Nov - 01:24:54 10° SSW 01:33:49 39° SE 01:42:31 10° ENE visible
13 Nov - 03:28:16 10° WSW 03:38:12 85° SSE 03:47:48 10° ENE night (unlit)
13 Nov - 05:33:52 10° W 05:43:40 75° N 05:53:07 10° E visible
13 Nov - 07:39:23 10° WNW 07:49:00 80° SSW 07:58:19 10° ESE visible
13 Nov - 09:45:00 10° WNW 09:53:02 33° SW 10:00:59 10° SSE visible
14 Nov - 01:03:15 10° SSW 01:12:05 37° SE 01:20:40 10° ENE visible
14 Nov - 03:06:27 10° WSW 03:16:24 83° SSE 03:26:02 10° ENE visible
14 Nov - 05:12:01 10° W 05:21:50 75° N 05:31:19 10° E visible
14 Nov - 07:17:34 10° WNW 07:27:13 82° SSW 07:36:34 10° ESE visible
14 Nov - 09:23:07 10° WNW 09:31:20 35° SW 09:39:25 10° SSE visible
15 Nov - 00:41:38 10° SSW 00:50:20 35° SE 00:58:50 10° ENE visible
15 Nov - 02:44:38 10° WSW 02:54:36 81° SSE 03:04:15 10° ENE visible
15 Nov - 04:50:10 10° W 05:00:01 75° N 05:09:32 10° E night (unlit)
15 Nov - 06:55:45 10° WNW 07:05:26 84° SSW 07:14:49 10° ESE visible
15 Nov - 09:01:16 10° WNW 09:09:38 37° SW 09:17:51 10° SSE visible
16 Nov - 00:20:01 10° SSW 00:28:36 34° SE 00:36:59 10° ENE visible
16 Nov - 02:22:50 10° WSW 02:32:48 79° SSE 02:42:28 10° ENE visible
16 Nov - 04:28:19 10° W 04:38:12 76° N 04:47:44 10° E night (unlit)
16 Nov - 06:33:55 10° WNW 06:43:39 86° SSW 06:53:03 10° ESE visible
16 Nov - 08:39:25 10° WNW 08:47:55 39° SW 08:56:15 10° SSE visible
16 Nov - 23:58:26 10° S 00:06:52 32° SE 00:15:08 10° ENE visible
17 Nov - 02:01:02 10° WSW 02:11:01 77° SSE 02:20:41 10° ENE visible
17 Nov - 04:06:28 10° W 04:16:22 76° N 04:25:56 10° E night (unlit)
17 Nov - 06:12:06 10° WNW 06:21:52 88° SSW 06:31:17 10° ESE visible
17 Nov - 08:17:33 10° WNW 08:26:12 41° SW 08:34:39 10° SSE visible
17 Nov - 23:36:50 10° S 23:45:09 30° SE 23:53:16 10° ENE visible
18 Nov - 01:39:14 10° SW 01:49:13 75° SSE 01:58:54 10° ENE visible
18 Nov - 03:44:36 10° W 03:54:33 76° N 04:04:08 10° E visible
18 Nov - 05:50:17 10° WNW 06:00:04 89° SSW 06:09:31 10° ESE visible
18 Nov - 07:55:43 10° WNW 08:04:29 43° SW 08:13:02 10° SSE visible
18 Nov - 23:15:17 10° S 23:23:24 29° SE 23:31:23 10° ENE visible
19 Nov - 01:17:26 10° SW 01:27:26 73° SSE 01:37:07 10° ENE visible
19 Nov - 03:22:45 10° W 03:32:43 77° N 03:42:21 10° E visible
19 Nov - 05:28:27 10° WNW 05:38:16 89° NNE 05:47:45 10° ESE night (unlit)
19 Nov - 07:33:52 10° WNW 07:42:46 45° SW 07:51:25 10° SSE visible
19 Nov - 09:43:25 10° WSW 09:45:43 11° WSW 09:48:00 10° SW visible
19 Nov - 22:53:44 10° S 23:01:41 27° SE 23:09:29 10° ENE visible
20 Nov - 00:55:40 10° SW 01:05:38 71° SSE 01:15:20 10° ENE visible
20 Nov - 03:00:54 10° W 03:10:54 77° N 03:20:33 10° E visible
20 Nov - 05:06:37 10° WNW 05:16:29 87° NNE 05:25:59 10° ESE night (unlit)
20 Nov - 07:12:01 10° WNW 07:21:02 47° SW 07:29:47 10° SSE visible
20 Nov - 09:20:46 10° W 09:24:03 12° WSW 09:27:19 10° SW visible
20 Nov - 22:32:13 10° S 22:39:58 26° SE 22:47:35 10° E visible
21 Nov - 00:33:53 10° SW 00:43:51 68° SSE 00:53:33 10° ENE visible
21 Nov - 02:39:02 10° W 02:49:04 78° N 02:58:45 10° E visible
21 Nov - 04:44:47 10° WNW 04:54:40 86° NNE 05:04:12 10° ESE night (unlit)
21 Nov - 06:50:11 10° WNW 06:59:18 49° SW 07:08:09 10° SSE visible
21 Nov - 08:58:23 10° W 09:02:23 13° WSW 09:06:22 10° SSW visible
21 Nov - 22:10:42 10° S 22:18:15 24° SE 22:25:40 10° E visible
22 Nov - 00:12:06 10° SW 00:22:03 66° SSE 00:31:45 10° ENE visible
22 Nov - 02:17:11 10° W 02:27:14 78° N 02:36:57 10° ENE visible
22 Nov - 04:22:56 10° WNW 04:32:52 85° NNE 04:42:25 10° ESE night (unlit)
22 Nov - 06:28:21 10° WNW 06:37:34 51° SW 06:46:30 10° SE night (unlit)
22 Nov - 08:36:07 10° W 08:40:43 15° WSW 08:45:17 10° SSW visible
22 Nov - 21:49:14 10° S 21:56:31 23° SE 22:03:43 10° E visible
